Regional Weather Roundup
Issued by NWS

Home | Current Version | Previous Version | Text Only | Print | Product List | Glossary Off
Versions: 1 2 3 4 5 6 7 8 9 10 11 12 13 14 15 16 17 18 19 20 21 22 23 24 25 26 27 28 29 30 31 32 33 34 35 36 37 38 39 40 41 42 43 44 45 46 47 48 49 50

000
ASUS45 KTFX 272204
RWRMT
MONTANA HOURLY WEATHER ROUNDUP
NATIONAL WEATHER SERVICE GREAT FALLS MT
404 PM MDT FRI MAR 27 2015

NOTE: "FAIR" INDICATES FEW OR NO CLOUDS BELOW 12000 FEET WITH NO
SIGNIFICANT WEATHER AND/OR OBSTRUCTIONS TO VISIBILITY.

* THESE STATIONS ARE NOT UNDER NWS QUALITY CONTROL. THEY DO NOT
   REPORT WEATHER SUCH AS PRECIPITATION OR FOG.

MTZ001>007-043-272300-
WEST OF THE DIVIDE
CITY           SKY/WX    TMP DP  RH WIND       PRES   REMARKS
KALISPELL      SUNNY     64  43  47 S12       29.99F
MISSOULA       SUNNY     70  41  35 CALM      30.04F
BUTTE          SUNNY     68  28  22 NW15      30.09F
MULLAN PASS    PTCLDY    55  37  51 VRB5      30.11F
* ESSEX        N/A       65  34  32 E4G9       N/A
* LINCOLN      N/A       67  36  32 W8G19      N/A
* LOOKOUT PASS N/A       64  41  43 NW5G14     N/A
* POLSON       N/A       71  47  43 SE2G7      N/A
* SEELEY LAKE  N/A       68  36  31 NW8G14     N/A
* THOMP F APT  SUNNY     58  34  41 SW8G17     N/A
* YAAK HILL    N/A       65  37  36 SW2        N/A
$$

MTZ008-052>055-272300-
SOUTHWEST MONTANA
CITY           SKY/WX    TMP DP  RH WIND       PRES   REMARKS
BOZEMAN        SUNNY     72  32  23 NW8       30.04F
DILLON         SUNNY     73  25  17 W17G28    30.07F
* W YELLOWSTON SUNNY     58  33  39 SW7G15     N/A
* BOULDER HILL N/A       66  26  22 SE2G16     N/A
* HOMESTAKE PS N/A       61  28  29 W4G14      N/A
* MONIDA PASS  N/A       55  33  43 SE20G28    N/A
* RAYNOLDS PAS N/A       56  36  47 SE14G20    N/A
* WHITEHALL    N/A       78  32  19 SW10G20    N/A
* WISE RIVER   N/A       66  30  26 W12G23     N/A
$$

MTZ009>010-012-014-046-048-049-054-272300-
EAST SLOPES AND CENTRAL MONTANA
CITY           SKY/WX    TMP DP  RH WIND       PRES   REMARKS
CUT BANK       PTSUNNY   64  30  28 W24G35    29.95F
GREAT FALLS    PTCLDY    73  27  18 W17G30    29.96F
HELENA         PTCLDY    70  36  29 E8        30.00F
* DEARBORN     N/A       70  35  28 S11        N/A
* EAST GLACIER N/A       62  27  26 NW25G39    N/A
* MONARCH      N/A       65  15  14 W21G26     N/A
* PENDROY      N/A       65  18  16 S7         N/A
* ROGERS PASS  N/A       60  28  30 SE13G23    N/A
* SAINT MARY   N/A       60  34  38 SW10G24    N/A
$$

MTZ011-013-016-021-035-040-045-047-050-051-272300-
NORTH CENTRAL MONTANA
CITY           SKY/WX    TMP DP  RH WIND       PRES   REMARKS
HAVRE          PTSUNNY   73  28  19 NW14      29.87F
LEWISTOWN      SUNNY     72  27  19 NW15G31   29.97F
* N BAR RANCH  SUNNY     70  25  18 NW15G29   29.99F
* CHESTER      N/A       69  25  19 W16G26     N/A
* DENTON       N/A       72  26  18 NW15G25    N/A
* GEYSER       N/A       70  23  17 W23G34     N/A
* JUDITH GAP   N/A       68  23  18 N20G25     N/A
* LOMA         N/A       74  22  14 W22G31     N/A
$$

MTZ017>020-022>027-061-062-272300-
NORTHEAST MONTANA
CITY           SKY/WX    TMP DP  RH WIND       PRES   REMARKS
GLASGOW        PTSUNNY   70  36  29 W13       29.88F
GLENDIVE       SUNNY     68  37  32 NW14      29.90F
JORDAN         PTSUNNY   68  37  32 NW15      29.92S
SIDNEY         SUNNY     64  36  35 NW12      29.89F
WOLF POINT     PTSUNNY   72  36  27 W12       29.88F
* BEAVER HILL  N/A       64  34  33 NW18       N/A
* CIRCLE       N/A       67  41  39 W7G17      N/A
* LINDSAY DVD  N/A       65  36  34 W18        N/A
* NAVAJO       N/A       60  39  46 NW9        N/A
* SACO         N/A       70  37  30 W17G23     N/A
$$

MTZ028>042-056>058-272300-
SOUTHCENTRAL AND SOUTHEAST MONTANA
CITY           SKY/WX    TMP DP  RH WIND       PRES   REMARKS
BAKER          PTCLDY    68  36  31 NW17G29   29.91F
BILLINGS       PTCLDY    75  25  15 NW18G24   29.97S
LIVINGSTON     SUNNY     73  30  20 W16G26    30.02F
MILES CITY     SUNNY     70  34  27 NW20G26   29.91F
* ALZADA       N/A       66  35  32 W12G21     N/A
* HYSHAM       N/A       70  27  20 N3G10      N/A
* LAME DEER    N/A       65  30  27 NW9G21     N/A
* REED POINT   N/A       74  34  23 W20G30     N/A
* ROSCOE HILL  N/A       69  10  10 SW8G17     N/A
$$

REGIONAL REPORTS...DAKOTAS
CITY           SKY/WX    TMP DP  RH WIND       PRES   REMARKS
WILLISTON      PTSUNNY   64  36  35 NW17G26   29.88F
DICKINSON      PTSUNNY   64  34  33 N18G30    29.86S
CROSBY         PTSUNNY   55  39  55 NW16      29.90S
WATFORD CITY   SUNNY     61  36  39 NW16G21   29.87S
BISMARCK       CLOUDY    46  32  58 SE10      29.88F
GRAND FORKS    CLOUDY    34  21  59 SE16      30.07F WCI  24
FARGO          CLOUDY    36  12  37 SW15      30.08S WCI  27
BUFFALO SD     PTCLDY    66  34  31 NW22G28   29.84F
RAPID CITY     CLOUDY    70  36  29 N24G30    29.92F
$$

REGIONAL REPORTS...WYOMING/IDAHO/WASHINGTON
CITY           SKY/WX    TMP DP  RH WIND       PRES   REMARKS
GILLETTE       PTCLDY    66  32  28 NW20G31   29.99F
SHERIDAN       PTCLDY    70  27  20 NW26G32   29.98F
CODY           PTCLDY    66  27  23 NW16      30.07S
YELLOWSTONE LA SUNNY     54  27  35 VRB7G20   30.27F
SALMON         SUNNY     68  37  32 W3        30.06F
MULLAN PASS    PTCLDY    55  37  51 VRB5      30.11S
SAND POINT     SUNNY     59  45  60 CALM      30.00F
SPOKANE        PTCLDY    70  48  46 S10       29.98F

$$




USA.gov is the U.S. government's official web portal to all federal, state and local government web resources and services.